TimeEST,TemperatureF,Dew PointF,Humidity,Sea Level PressureIn,VisibilityMPH,Wind Direction,Wind SpeedMPH,Gust SpeedMPH,PrecipitationIn,Events,Conditions,WindDirDegrees,DateUTC
12:15 AM,57.2,55.4,94,29.96,7.0,Calm,Calm,-,N/A,,Unknown,0,2011-11-16 05:15:00
12:35 AM,57.2,57.2,100,29.95,10.0,South,4.6,-,N/A,,Unknown,170,2011-11-16 05:35:00
12:55 AM,57.2,57.2,100,29.95,10.0,South,4.6,-,N/A,,Unknown,180,2011-11-16 05:55:00
1:15 AM,59.0,57.2,94,29.92,7.0,SSE,4.6,-,N/A,,Unknown,150,2011-11-16 06:15:00
1:35 AM,60.8,59.0,94,29.92,10.0,South,9.2,-,N/A,,Unknown,170,2011-11-16 06:35:00
1:55 AM,60.8,57.2,88,29.91,7.0,South,10.4,-,N/A,,Unknown,170,2011-11-16 06:55:00
2:15 AM,60.8,59.0,94,29.90,7.0,South,10.4,16.1,N/A,,Unknown,170,2011-11-16 07:15:00
2:35 AM,60.8,59.0,94,29.91,10.0,South,8.1,-,N/A,,Unknown,190,2011-11-16 07:35:00
3:15 AM,60.8,57.2,88,29.93,3.0,SSW,6.9,-,N/A,,Unknown,200,2011-11-16 08:15:00
3:35 AM,60.8,57.2,88,29.91,4.0,Calm,Calm,-,N/A,,Unknown,0,2011-11-16 08:35:00
3:55 AM,60.8,57.2,88,29.89,4.0,SSE,4.6,-,N/A,,Unknown,150,2011-11-16 08:55:00
4:15 AM,60.8,57.2,88,29.88,7.0,Calm,Calm,-,N/A,,Unknown,0,2011-11-16 09:15:00
4:35 AM,60.8,57.2,88,29.89,7.0,South,4.6,-,N/A,,Unknown,170,2011-11-16 09:35:00
4:55 AM,60.8,57.2,88,29.88,3.0,South,6.9,-,N/A,,Unknown,180,2011-11-16 09:55:00
5:15 AM,60.8,57.2,88,29.86,10.0,South,3.5,-,N/A,,Unknown,180,2011-11-16 10:15:00
5:35 AM,60.8,57.2,88,29.84,10.0,South,10.4,18.4,N/A,,Unknown,170,2011-11-16 10:35:00
5:55 AM,60.8,57.2,88,29.84,10.0,South,8.1,-,N/A,,Unknown,180,2011-11-16 10:55:00
6:15 AM,59.0,57.2,94,29.84,10.0,South,11.5,-,N/A,,Unknown,190,2011-11-16 11:15:00
6:35 AM,59.0,57.2,94,29.86,7.0,South,8.1,-,N/A,,Unknown,190,2011-11-16 11:35:00
6:55 AM,59.0,57.2,94,29.86,2.0,South,6.9,-,N/A,,Unknown,190,2011-11-16 11:55:00
7:15 AM,59.0,57.2,94,29.87,4.0,South,6.9,-,N/A,,Unknown,190,2011-11-16 12:15:00
7:35 AM,59.0,57.2,94,29.88,3.0,SW,8.1,-,N/A,,Unknown,220,2011-11-16 12:35:00
7:55 AM,59.0,57.2,94,29.87,5.0,South,5.8,-,N/A,,Unknown,180,2011-11-16 12:55:00
8:15 AM,59.0,57.2,94,29.88,10.0,South,8.1,-,N/A,,Unknown,190,2011-11-16 13:15:00
8:35 AM,59.0,57.2,94,29.87,5.0,South,8.1,-,N/A,,Unknown,180,2011-11-16 13:35:00
8:55 AM,60.8,57.2,88,29.86,10.0,South,10.4,-,N/A,,Unknown,180,2011-11-16 13:55:00
9:15 AM,60.8,57.2,88,29.86,10.0,SSW,8.1,-,N/A,,Unknown,200,2011-11-16 14:15:00
9:35 AM,60.8,59.0,94,29.87,10.0,South,5.8,-,N/A,,Unknown,180,2011-11-16 14:35:00
9:55 AM,60.8,59.0,94,29.86,10.0,SSW,4.6,-,N/A,,Unknown,200,2011-11-16 14:55:00
10:15 AM,60.8,59.0,94,29.86,5.0,South,6.9,-,N/A,,Unknown,190,2011-11-16 15:15:00
10:35 AM,62.6,59.0,88,29.86,7.0,SSW,10.4,-,N/A,,Unknown,210,2011-11-16 15:35:00
10:55 AM,62.6,59.0,88,29.86,7.0,West,8.1,-,N/A,,Unknown,280,2011-11-16 15:55:00
11:15 AM,55.4,53.6,94,29.85,2.5,NNW,13.8,23.0,N/A,,Unknown,340,2011-11-16 16:15:00
11:35 AM,53.6,51.8,94,29.85,2.0,North,12.7,19.6,N/A,,Unknown,350,2011-11-16 16:35:00
11:55 AM,53.6,51.8,94,29.85,5.0,NNW,8.1,17.3,N/A,,Unknown,340,2011-11-16 16:55:00
12:15 PM,53.6,51.8,94,29.85,2.0,NNW,8.1,-,N/A,,Unknown,340,2011-11-16 17:15:00
12:55 PM,51.8,50.0,94,29.84,3.0,North,11.5,-,N/A,,Unknown,360,2011-11-16 17:55:00
1:15 PM,51.8,50.0,94,29.82,3.0,North,10.4,-,N/A,,Unknown,360,2011-11-16 18:15:00
1:35 PM,51.8,51.8,100,29.82,3.0,North,13.8,17.3,N/A,,Unknown,10,2011-11-16 18:35:00
1:55 PM,51.8,50.0,94,29.85,1.5,North,15.0,24.2,N/A,,Unknown,360,2011-11-16 18:55:00
2:15 PM,51.8,50.0,94,29.86,2.5,NNW,9.2,-,N/A,,Unknown,330,2011-11-16 19:15:00
2:35 PM,51.8,48.2,88,29.86,2.5,NNW,12.7,23.0,N/A,,Unknown,340,2011-11-16 19:35:00
2:55 PM,50.0,48.2,94,29.86,2.5,NNW,18.4,23.0,N/A,,Unknown,340,2011-11-16 19:55:00
3:15 PM,50.0,48.2,94,29.85,3.0,NNE,15.0,20.7,N/A,,Unknown,20,2011-11-16 20:15:00
3:35 PM,50.0,48.2,94,29.85,1.2,NNE,15.0,-,N/A,,Unknown,20,2011-11-16 20:35:00
4:15 PM,48.2,48.2,100,29.88,2.5,North,10.4,18.4,N/A,,Unknown,360,2011-11-16 21:15:00
4:35 PM,48.2,46.4,93,29.89,1.2,North,10.4,19.6,N/A,,Unknown,10,2011-11-16 21:35:00
4:55 PM,48.2,46.4,93,29.89,2.5,North,9.2,17.3,N/A,,Unknown,360,2011-11-16 21:55:00
5:15 PM,48.2,46.4,93,29.90,2.5,North,11.5,24.2,N/A,,Unknown,350,2011-11-16 22:15:00
5:35 PM,46.4,46.4,100,29.91,5.0,North,9.2,19.6,N/A,,Unknown,350,2011-11-16 22:35:00
5:55 PM,46.4,46.4,100,29.93,3.0,North,13.8,21.9,N/A,,Unknown,350,2011-11-16 22:55:00
6:15 PM,46.4,44.6,93,29.93,10.0,North,11.5,-,N/A,,Unknown,360,2011-11-16 23:15:00
6:35 PM,46.4,44.6,93,29.94,10.0,North,6.9,-,N/A,,Unknown,360,2011-11-16 23:35:00
6:55 PM,46.4,44.6,93,29.95,10.0,North,8.1,-,N/A,,Unknown,350,2011-11-16 23:55:00
7:15 PM,46.4,44.6,93,29.95,10.0,North,6.9,-,N/A,,Unknown,360,2011-11-17 00:15:00
7:35 PM,46.4,44.6,93,29.95,10.0,North,8.1,-,N/A,,Unknown,10,2011-11-17 00:35:00
7:55 PM,46.4,44.6,93,29.94,10.0,North,6.9,-,N/A,,Unknown,10,2011-11-17 00:55:00
8:15 PM,46.4,44.6,93,29.95,7.0,North,9.2,-,N/A,,Unknown,10,2011-11-17 01:15:00
8:35 PM,46.4,44.6,93,29.95,10.0,North,8.1,-,N/A,,Unknown,10,2011-11-17 01:35:00
8:55 PM,46.4,44.6,93,29.96,10.0,North,5.8,-,N/A,,Unknown,10,2011-11-17 01:55:00
9:15 PM,46.4,44.6,93,29.98,10.0,NNW,5.8,-,N/A,,Unknown,330,2011-11-17 02:15:00
9:35 PM,46.4,44.6,93,29.97,5.0,North,8.1,-,N/A,,Unknown,350,2011-11-17 02:35:00
9:55 PM,46.4,44.6,93,29.96,10.0,North,8.1,-,N/A,,Unknown,350,2011-11-17 02:55:00
10:35 PM,46.4,44.6,93,29.97,10.0,NNW,8.1,-,N/A,,Unknown,330,2011-11-17 03:35:00
10:55 PM,46.4,44.6,93,29.97,10.0,NNW,10.4,-,N/A,,Unknown,340,2011-11-17 03:55:00
11:15 PM,46.4,44.6,93,29.96,10.0,North,9.2,-,N/A,,Unknown,350,2011-11-17 04:15:00
11:35 PM,46.4,44.6,93,29.97,10.0,North,8.1,-,N/A,,Unknown,350,2011-11-17 04:35:00
11:55 PM,46.4,44.6,93,29.96,3.0,NNW,8.1,-,N/A,,Unknown,340,2011-11-17 04:55:00